Time,TemperatureF,DewpointF,PressureIn,WindDirection,WindDirectionDegrees,WindSpeedMPH,WindSpeedGustMPH,Humidity,HourlyPrecipIn,Conditions,Clouds,dailyrainin,SoftwareType,DateUTC
2013-03-14 00:00:00,37.2,18.8,30.20,North,0,0.0,-999.0,47,0.00,Sunny,,0.00,Open2300\PHP-WU,2013-03-14 04:00:00,
2013-03-14 00:02:00,37.0,18.6,30.20,North,0,0.0,-999.0,47,0.00,Sunny,,0.00,Open2300\PHP-WU,2013-03-14 04:02:00,
2013-03-14 00:08:00,36.7,18.3,30.20,NE,45,0.0,-999.0,47,0.00,Sunny,,0.00,Open2300\PHP-WU,2013-03-14 04:08:00,
2013-03-14 00:09:00,36.7,18.3,30.20,North,0,0.0,-999.0,47,0.00,Sunny,,0.00,Open2300\PHP-WU,2013-03-14 04:09:00,
2013-03-14 00:13:00,36.7,18.3,30.20,North,0,0.0,-999.0,47,0.00,Sunny,,0.00,Open2300\PHP-WU,2013-03-14 04:13:00,
2013-03-14 00:20:00,36.3,17.9,30.21,NNW,337,0.0,-999.0,47,0.00,Sunny,,0.00,Open2300\PHP-WU,2013-03-14 04:20:00,
2013-03-14 00:25:00,36.1,17.8,30.20,NNW,337,0.0,-999.0,47,0.00,Sunny,,0.00,Open2300\PHP-WU,2013-03-14 04:25:00,
2013-03-14 00:32:00,36.0,17.6,30.21,North,0,1.3,-999.0,47,0.00,Sunny,,0.00,Open2300\PHP-WU,2013-03-14 04:32:00,
2013-03-14 00:37:00,35.8,17.5,30.20,NNW,337,0.0,-999.0,47,0.00,Sunny,,0.00,Open2300\PHP-WU,2013-03-14 04:37:00,
2013-03-14 00:43:00,35.4,17.1,30.21,NNE,22,1.8,-999.0,47,0.00,Sunny,,0.00,Open2300\PHP-WU,2013-03-14 04:43:00,
2013-03-14 00:49:00,35.4,17.1,30.21,SSE,157,0.0,-999.0,47,0.00,Sunny,,0.00,Open2300\PHP-WU,2013-03-14 04:49:00,
2013-03-14 00:55:00,35.2,16.9,30.21,North,0,0.0,-999.0,47,0.00,Sunny,,0.00,Open2300\PHP-WU,2013-03-14 04:55:00,
2013-03-14 01:01:00,35.2,16.9,30.21,NNW,337,0.0,-999.0,47,0.00,Sunny,,0.00,Open2300\PHP-WU,2013-03-14 05:01:00,
2013-03-14 01:07:00,35.2,16.9,30.21,NNW,337,0.0,-999.0,47,0.00,Sunny,,0.00,Open2300\PHP-WU,2013-03-14 05:07:00,
2013-03-14 01:13:00,34.9,16.6,30.22,North,0,0.0,-999.0,47,0.00,Sunny,,0.00,Open2300\PHP-WU,2013-03-14 05:13:00,
2013-03-14 01:19:00,34.7,16.4,30.22,NNW,337,0.0,-999.0,47,0.00,Sunny,,0.00,Open2300\PHP-WU,2013-03-14 05:19:00,
2013-03-14 01:25:00,34.7,16.4,30.22,NNE,22,0.0,-999.0,47,0.00,Sunny,,0.00,Open2300\PHP-WU,2013-03-14 05:25:00,
2013-03-14 01:31:00,34.3,16.1,30.22,WNW,292,0.0,-999.0,47,0.00,Sunny,,0.00,Open2300\PHP-WU,2013-03-14 05:31:00,
2013-03-14 01:37:00,34.3,16.6,30.22,North,0,0.0,-999.0,48,0.00,Sunny,,0.00,Open2300\PHP-WU,2013-03-14 05:37:00,
2013-03-14 01:43:00,34.3,16.6,30.22,North,0,0.0,-999.0,48,0.00,Sunny,,0.00,Open2300\PHP-WU,2013-03-14 05:43:00,
2013-03-14 01:49:00,34.3,16.6,30.22,North,0,0.0,-999.0,48,0.00,Sunny,,0.00,Open2300\PHP-WU,2013-03-14 05:49:00,
2013-03-14 01:55:00,34.2,16.4,30.22,North,0,0.0,-999.0,48,0.00,Sunny,,0.00,Open2300\PHP-WU,2013-03-14 05:55:00,
2013-03-14 02:01:00,34.2,16.4,30.23,NNW,337,0.0,-999.0,48,0.00,Sunny,,0.00,Open2300\PHP-WU,2013-03-14 06:01:00,
2013-03-14 02:07:00,33.6,16.4,30.23,NNW,337,0.0,-999.0,49,0.00,Sunny,,0.00,Open2300\PHP-WU,2013-03-14 06:07:00,
2013-03-14 02:13:00,33.4,16.7,30.23,NNE,22,0.0,-999.0,50,0.00,Sunny,,0.00,Open2300\PHP-WU,2013-03-14 06:13:00,
2013-03-14 02:19:00,33.4,16.2,30.23,WNW,292,0.0,-999.0,49,0.00,Sunny,,0.00,Open2300\PHP-WU,2013-03-14 06:19:00,
2013-03-14 02:25:00,33.4,16.7,30.23,NNW,337,0.0,-999.0,50,0.00,Sunny,,0.00,Open2300\PHP-WU,2013-03-14 06:25:00,
2013-03-14 02:31:00,33.1,16.4,30.23,NNW,337,0.0,-999.0,50,0.00,Sunny,,0.00,Open2300\PHP-WU,2013-03-14 06:31:00,
2013-03-14 02:37:00,32.7,16.1,30.22,NNE,22,0.0,-999.0,50,0.00,Sunny,,0.00,Open2300\PHP-WU,2013-03-14 06:37:00,
2013-03-14 02:43:00,32.4,16.2,30.22,NNE,22,0.0,-999.0,51,0.00,Sunny,,0.00,Open2300\PHP-WU,2013-03-14 06:43:00,
2013-03-14 02:49:00,32.4,16.2,30.23,West,270,0.0,-999.0,51,0.00,Sunny,,0.00,Open2300\PHP-WU,2013-03-14 06:49:00,
2013-03-14 02:55:00,31.8,16.1,30.23,West,270,0.0,-999.0,52,0.00,Sunny,,0.00,Open2300\PHP-WU,2013-03-14 06:55:00,
2013-03-14 03:01:00,31.8,16.1,30.22,NW,315,0.0,-999.0,52,0.00,Sunny,,0.00,Open2300\PHP-WU,2013-03-14 07:01:00,
2013-03-14 03:07:00,31.3,15.6,30.22,NE,45,0.0,-999.0,52,0.00,Sunny,,0.00,Open2300\PHP-WU,2013-03-14 07:07:00,
2013-03-14 03:13:00,31.6,16.4,30.23,NNE,22,0.0,-999.0,53,0.00,Sunny,,0.00,Open2300\PHP-WU,2013-03-14 07:13:00,
2013-03-14 03:19:00,31.6,16.4,30.22,NNW,337,0.0,-999.0,53,0.00,Sunny,,0.00,Open2300\PHP-WU,2013-03-14 07:19:00,
2013-03-14 03:25:00,31.1,15.9,30.22,WNW,292,0.0,-999.0,53,0.00,Sunny,,0.00,Open2300\PHP-WU,2013-03-14 07:25:00,
2013-03-14 03:31:00,30.9,15.7,30.22,NNE,22,0.0,-999.0,53,0.00,Sunny,,0.00,Open2300\PHP-WU,2013-03-14 07:31:00,
2013-03-14 03:37:00,30.7,15.5,30.22,NNE,22,0.0,-999.0,53,0.00,Sunny,,0.00,Open2300\PHP-WU,2013-03-14 07:37:00,
2013-03-14 03:43:00,30.6,15.8,30.22,NNE,22,0.0,-999.0,54,0.00,Sunny,,0.00,Open2300\PHP-WU,2013-03-14 07:43:00,
2013-03-14 03:49:00,30.2,15.9,30.22,NNE,22,0.0,-999.0,55,0.00,Sunny,,0.00,Open2300\PHP-WU,2013-03-14 07:49:00,
2013-03-14 03:55:00,29.5,15.7,30.22,NNE,22,0.0,-999.0,56,0.00,Sunny,,0.00,Open2300\PHP-WU,2013-03-14 07:55:00,
2013-03-14 04:01:00,29.1,15.3,30.22,NNE,22,0.0,-999.0,56,0.00,Sunny,,0.00,Open2300\PHP-WU,2013-03-14 08:01:00,
2013-03-14 04:07:00,29.1,15.7,30.22,NE,45,0.0,-999.0,57,0.00,Sunny,,0.00,Open2300\PHP-WU,2013-03-14 08:07:00,
2013-03-14 04:13:00,29.1,16.2,30.22,NNE,22,0.0,-999.0,58,0.00,Sunny,,0.00,Open2300\PHP-WU,2013-03-14 08:13:00,
2013-03-14 04:19:00,29.1,16.2,30.22,West,270,0.0,-999.0,58,0.00,Sunny,,0.00,Open2300\PHP-WU,2013-03-14 08:19:00,
2013-03-14 04:25:00,29.5,16.1,30.22,NNW,337,0.0,-999.0,57,0.00,Sunny,,0.00,Open2300\PHP-WU,2013-03-14 08:25:00,
2013-03-14 04:31:00,30.0,16.6,30.22,NNW,337,0.0,-999.0,57,0.00,Sunny,,0.00,Open2300\PHP-WU,2013-03-14 08:31:00,
2013-03-14 04:37:00,30.2,16.3,30.22,NNE,22,0.0,-999.0,56,0.00,Sunny,,0.00,Open2300\PHP-WU,2013-03-14 08:37:00,
2013-03-14 04:43:00,30.6,16.6,30.22,North,0,0.0,-999.0,56,0.00,Sunny,,0.00,Open2300\PHP-WU,2013-03-14 08:43:00,
2013-03-14 04:49:00,30.4,16.5,30.22,North,0,0.0,-999.0,56,0.00,Sunny,,0.00,Open2300\PHP-WU,2013-03-14 08:49:00,
2013-03-14 04:55:00,30.0,16.1,30.22,SW,225,0.0,-999.0,56,0.00,Sunny,,0.00,Open2300\PHP-WU,2013-03-14 08:55:00,
2013-03-14 05:01:00,30.0,16.1,30.22,WSW,247,0.0,-999.0,56,0.00,Sunny,,0.00,Open2300\PHP-WU,2013-03-14 09:01:00,
2013-03-14 05:07:00,29.8,16.0,30.23,NNE,22,0.0,-999.0,56,0.00,Sunny,,0.00,Open2300\PHP-WU,2013-03-14 09:07:00,
2013-03-14 05:13:00,29.8,16.0,30.22,NNW,337,0.0,-999.0,56,0.00,Sunny,,0.00,Open2300\PHP-WU,2013-03-14 09:13:00,
2013-03-14 05:19:00,29.5,15.7,30.23,WSW,247,0.0,-999.0,56,0.00,Sunny,,0.00,Open2300\PHP-WU,2013-03-14 09:19:00,
2013-03-14 05:25:00,29.8,16.0,30.23,North,0,0.0,-999.0,56,0.00,Sunny,,0.00,Open2300\PHP-WU,2013-03-14 09:25:00,
2013-03-14 05:31:00,29.7,15.8,30.23,NNE,22,0.0,-999.0,56,0.00,Sunny,,0.00,Open2300\PHP-WU,2013-03-14 09:31:00,
2013-03-14 05:37:00,29.8,16.0,30.23,NNW,337,0.0,-999.0,56,0.00,Sunny,,0.00,Open2300\PHP-WU,2013-03-14 09:37:00,
2013-03-14 05:43:00,29.8,16.0,30.24,West,270,0.0,-999.0,56,0.00,Sunny,,0.00,Open2300\PHP-WU,2013-03-14 09:43:00,
2013-03-14 05:49:00,29.3,15.5,30.24,West,270,0.0,-999.0,56,0.00,Sunny,,0.00,Open2300\PHP-WU,2013-03-14 09:49:00,
2013-03-14 05:55:00,29.1,15.7,30.24,West,270,0.0,-999.0,57,0.00,Sunny,,0.00,Open2300\PHP-WU,2013-03-14 09:55:00,
2013-03-14 06:01:00,28.8,15.4,30.24,West,270,0.0,-999.0,57,0.00,Sunny,,0.00,Open2300\PHP-WU,2013-03-14 10:01:00,
2013-03-14 06:07:00,28.2,15.3,30.25,West,270,0.0,-999.0,58,0.00,Sunny,,0.00,Open2300\PHP-WU,2013-03-14 10:07:00,
2013-03-14 06:13:00,28.2,15.7,30.25,West,270,0.0,-999.0,59,0.00,Sunny,,0.00,Open2300\PHP-WU,2013-03-14 10:13:00,
2013-03-14 06:19:00,27.7,15.2,30.25,West,270,0.0,-999.0,59,0.00,Sunny,,0.00,Open2300\PHP-WU,2013-03-14 10:19:00,
2013-03-14 06:25:00,27.5,15.4,30.25,West,270,0.0,-999.0,60,0.00,Sunny,,0.00,Open2300\PHP-WU,2013-03-14 10:25:00,
2013-03-14 06:31:00,27.3,15.3,30.25,West,270,0.0,-999.0,60,0.00,Sunny,,0.00,Open2300\PHP-WU,2013-03-14 10:31:00,
2013-03-14 06:37:00,27.3,15.3,30.25,West,270,0.0,-999.0,60,0.00,Sunny,,0.00,Open2300\PHP-WU,2013-03-14 10:37:00,
2013-03-14 06:43:00,27.5,15.4,30.26,NNE,22,0.0,-999.0,60,0.00,Sunny,,0.00,Open2300\PHP-WU,2013-03-14 10:43:00,
2013-03-14 06:49:00,28.0,16.0,30.26,NNE,22,0.0,-999.0,60,0.00,Sunny,,0.00,Open2300\PHP-WU,2013-03-14 10:49:00,
2013-03-14 06:55:00,28.2,15.7,30.26,NNW,337,0.0,-999.0,59,0.00,Sunny,,0.00,Open2300\PHP-WU,2013-03-14 10:55:00,
2013-03-14 07:01:00,28.2,16.2,30.26,NNW,337,0.0,-999.0,60,0.00,Sunny,,0.00,Open2300\PHP-WU,2013-03-14 11:01:00,
2013-03-14 07:07:00,28.0,15.6,30.26,NNW,337,0.0,-999.0,59,0.00,Sunny,,0.00,Open2300\PHP-WU,2013-03-14 11:07:00,
2013-03-14 07:13:00,27.5,15.4,30.27,NNW,337,0.0,-999.0,60,0.00,Sunny,,0.00,Open2300\PHP-WU,2013-03-14 11:13:00,
2013-03-14 07:19:00,27.5,15.4,30.27,NNW,337,0.0,-999.0,60,0.00,Sunny,,0.00,Open2300\PHP-WU,2013-03-14 11:19:00,
2013-03-14 07:25:00,28.0,16.0,30.27,NNW,337,0.0,-999.0,60,0.00,Sunny,,0.00,Open2300\PHP-WU,2013-03-14 11:25:00,
2013-03-14 07:32:00,28.0,16.0,30.27,SSW,202,0.0,-999.0,60,0.00,Sunny,,0.00,Open2300\PHP-WU,2013-03-14 11:32:00,
2013-03-14 07:38:00,28.4,15.9,30.27,SSW,202,0.0,-999.0,59,0.00,Sunny,,0.00,Open2300\PHP-WU,2013-03-14 11:38:00,
2013-03-14 07:44:00,28.6,16.1,30.27,West,270,0.0,-999.0,59,0.00,Sunny,,0.00,Open2300\PHP-WU,2013-03-14 11:44:00,
2013-03-14 07:50:00,28.6,16.1,30.27,West,270,0.0,-999.0,59,0.00,Sunny,,0.00,Open2300\PHP-WU,2013-03-14 11:50:00,
2013-03-14 07:56:00,28.6,16.1,30.28,ENE,67,0.0,-999.0,59,0.00,Sunny,,0.00,Open2300\PHP-WU,2013-03-14 11:56:00,
2013-03-14 08:02:00,28.6,16.1,30.28,ENE,67,0.0,-999.0,59,0.00,Sunny,,0.00,Open2300\PHP-WU,2013-03-14 12:02:00,
2013-03-14 08:08:00,28.2,15.7,30.28,ENE,67,0.0,-999.0,59,0.00,Sunny,,0.00,Open2300\PHP-WU,2013-03-14 12:08:00,
2013-03-14 08:14:00,28.6,16.1,30.29,NNE,22,0.0,-999.0,59,0.00,Sunny,,0.00,Open2300\PHP-WU,2013-03-14 12:14:00,
2013-03-14 08:20:00,28.6,16.1,30.29,NNE,22,0.0,-999.0,59,0.00,Sunny,,0.00,Open2300\PHP-WU,2013-03-14 12:20:00,
2013-03-14 08:26:00,28.9,16.4,30.29,NNW,337,0.0,-999.0,59,0.00,Sunny,,0.00,Open2300\PHP-WU,2013-03-14 12:26:00,
2013-03-14 08:32:00,29.5,17.3,30.29,WSW,247,0.0,-999.0,60,0.00,Sunny,,0.00,Open2300\PHP-WU,2013-03-14 12:32:00,
2013-03-14 08:38:00,30.2,17.5,30.29,NNW,337,0.0,-999.0,59,0.00,Sunny,,0.00,Open2300\PHP-WU,2013-03-14 12:38:00,
2013-03-14 08:44:00,30.9,17.8,30.29,North,0,0.0,-999.0,58,0.00,Sunny,,0.00,Open2300\PHP-WU,2013-03-14 12:44:00,
2013-03-14 08:50:00,31.6,18.1,30.29,West,270,0.0,-999.0,57,0.00,Sunny,,0.00,Open2300\PHP-WU,2013-03-14 12:50:00,
2013-03-14 08:56:00,32.4,18.4,30.29,NE,45,0.0,-999.0,56,0.00,Sunny,,0.00,Open2300\PHP-WU,2013-03-14 12:56:00,
2013-03-14 09:02:00,32.7,18.2,30.29,NNW,337,0.0,-999.0,55,0.00,Sunny,,0.00,Open2300\PHP-WU,2013-03-14 13:02:00,
2013-03-14 09:08:00,33.4,18.5,30.30,WNW,292,0.0,-999.0,54,0.00,Sunny,,0.00,Open2300\PHP-WU,2013-03-14 13:08:00,
2013-03-14 09:14:00,34.0,19.0,30.30,North,0,0.0,-999.0,54,0.00,Sunny,,0.00,Open2300\PHP-WU,2013-03-14 13:14:00,
2013-03-14 09:20:00,34.3,18.9,30.30,NNW,337,0.0,-999.0,53,0.00,Sunny,,0.00,Open2300\PHP-WU,2013-03-14 13:20:00,
2013-03-14 09:26:00,34.9,19.0,30.29,North,0,0.0,-999.0,52,0.00,Sunny,,0.00,Open2300\PHP-WU,2013-03-14 13:26:00,
2013-03-14 09:32:00,35.2,18.9,30.30,SW,225,0.0,-999.0,51,0.00,Sunny,,0.00,Open2300\PHP-WU,2013-03-14 13:32:00,
2013-03-14 09:38:00,35.4,18.7,30.30,North,0,1.6,-999.0,50,0.00,Sunny,,0.00,Open2300\PHP-WU,2013-03-14 13:38:00,
2013-03-14 09:44:00,36.9,19.5,30.30,NNE,22,1.6,-999.0,49,0.00,Sunny,,0.00,Open2300\PHP-WU,2013-03-14 13:44:00,
2013-03-14 09:50:00,37.8,19.8,30.30,NNE,22,1.6,-999.0,48,0.00,Sunny,,0.00,Open2300\PHP-WU,2013-03-14 13:50:00,
2013-03-14 09:56:00,37.8,19.8,30.30,NNE,22,1.6,-999.0,48,0.00,Sunny,,0.00,Open2300\PHP-WU,2013-03-14 13:56:00,
2013-03-14 10:02:00,39.0,20.9,30.30,NNW,337,4.7,-999.0,48,0.00,Sunny,,0.00,Open2300\PHP-WU,2013-03-14 14:02:00,
2013-03-14 10:08:00,39.4,19.1,30.29,North,0,3.8,-999.0,44,0.00,Sunny,,0.00,Open2300\PHP-WU,2013-03-14 14:08:00,
2013-03-14 10:14:00,39.9,20.1,30.30,NNE,22,0.0,-999.0,45,0.00,Sunny,,0.00,Open2300\PHP-WU,2013-03-14 14:14:00,
2013-03-14 10:20:00,41.2,20.8,30.30,NW,315,6.3,-999.0,44,0.00,Sunny,,0.00,Open2300\PHP-WU,2013-03-14 14:20:00,
2013-03-14 10:26:00,40.8,18.9,30.30,NNE,22,0.0,-999.0,41,0.00,Sunny,,0.00,Open2300\PHP-WU,2013-03-14 14:26:00,
2013-03-14 10:32:00,41.2,19.7,30.30,NE,45,0.0,-999.0,42,0.00,Sunny,,0.00,Open2300\PHP-WU,2013-03-14 14:32:00,
2013-03-14 10:38:00,41.5,20.0,30.30,NNW,337,4.5,-999.0,42,0.00,Sunny,,0.00,Open2300\PHP-WU,2013-03-14 14:38:00,
2013-03-14 10:44:00,41.7,19.7,30.31,NNW,337,0.0,-999.0,41,0.00,Sunny,,0.00,Open2300\PHP-WU,2013-03-14 14:44:00,
2013-03-14 10:50:00,42.1,20.0,30.30,North,0,0.0,-999.0,41,0.00,Sunny,,0.00,Open2300\PHP-WU,2013-03-14 14:50:00,
2013-03-14 10:56:00,43.0,20.8,30.30,WNW,292,0.0,-999.0,41,0.00,Sunny,,0.00,Open2300\PHP-WU,2013-03-14 14:56:00,
2013-03-14 11:02:00,42.6,20.5,30.30,NE,45,1.8,-999.0,41,0.00,Sunny,,0.00,Open2300\PHP-WU,2013-03-14 15:02:00,
2013-03-14 11:08:00,43.0,20.3,30.30,NE,45,1.8,-999.0,40,0.00,Sunny,,0.00,Open2300\PHP-WU,2013-03-14 15:08:00,
2013-03-14 11:14:00,43.5,20.8,30.30,NE,45,1.8,-999.0,40,0.00,Sunny,,0.00,Open2300\PHP-WU,2013-03-14 15:14:00,
2013-03-14 11:19:00,43.5,20.8,30.30,NE,45,1.8,-999.0,40,0.00,Sunny,,0.00,Open2300\PHP-WU,2013-03-14 15:19:00,
2013-03-14 11:26:00,44.1,20.6,30.30,NE,45,0.0,-999.0,39,0.00,Sunny,,0.00,Open2300\PHP-WU,2013-03-14 15:26:00,
2013-03-14 11:32:00,44.4,20.9,30.30,WSW,247,0.0,-999.0,39,0.00,Sunny,,0.00,Open2300\PHP-WU,2013-03-14 15:32:00,
2013-03-14 11:38:00,44.4,20.9,30.30,West,270,0.0,-999.0,39,0.00,Sunny,,0.00,Open2300\PHP-WU,2013-03-14 15:38:00,
2013-03-14 11:44:00,45.0,21.4,30.30,North,0,0.0,-999.0,39,0.00,Sunny,,0.00,Open2300\PHP-WU,2013-03-14 15:44:00,
2013-03-14 11:50:00,45.1,21.6,30.30,North,0,0.0,-999.0,39,0.00,Sunny,,0.00,Open2300\PHP-WU,2013-03-14 15:50:00,
2013-03-14 11:56:00,45.3,21.1,30.30,North,0,3.6,-999.0,38,0.00,Sunny,,0.00,Open2300\PHP-WU,2013-03-14 15:56:00,
2013-03-14 12:02:00,45.1,20.9,30.29,North,0,3.6,-999.0,38,0.00,Sunny,,0.00,Open2300\PHP-WU,2013-03-14 16:02:00,
2013-03-14 12:07:00,45.3,21.7,30.29,NNE,22,0.0,-999.0,39,0.00,Sunny,,0.00,Open2300\PHP-WU,2013-03-14 16:07:00,
2013-03-14 12:14:00,45.3,21.7,30.28,SSE,157,0.0,-999.0,39,0.00,Sunny,,0.00,Open2300\PHP-WU,2013-03-14 16:14:00,
2013-03-14 12:19:00,46.0,21.7,30.28,NNE,22,0.0,-999.0,38,0.00,Sunny,,0.00,Open2300\PHP-WU,2013-03-14 16:19:00,
2013-03-14 12:25:00,46.2,21.9,30.28,East,90,0.0,-999.0,38,0.00,Sunny,,0.00,Open2300\PHP-WU,2013-03-14 16:25:00,
2013-03-14 12:32:00,46.2,21.9,30.28,WNW,292,0.0,-999.0,38,0.00,Sunny,,0.00,Open2300\PHP-WU,2013-03-14 16:32:00,
2013-03-14 12:38:00,46.8,22.4,30.27,NNW,337,5.1,-999.0,38,0.00,Sunny,,0.00,Open2300\PHP-WU,2013-03-14 16:38:00,
2013-03-14 12:43:00,46.8,21.7,30.27,North,0,0.0,-999.0,37,0.00,Sunny,,0.00,Open2300\PHP-WU,2013-03-14 16:43:00,
2013-03-14 12:49:00,46.9,21.8,30.27,North,0,0.0,-999.0,37,0.00,Sunny,,0.00,Open2300\PHP-WU,2013-03-14 16:49:00,
2013-03-14 12:55:00,47.1,22.0,30.27,NNE,22,4.3,-999.0,37,0.00,Sunny,,0.00,Open2300\PHP-WU,2013-03-14 16:55:00,
2013-03-14 13:02:00,46.9,21.8,30.27,North,0,4.5,-999.0,37,0.00,Sunny,,0.00,Open2300\PHP-WU,2013-03-14 17:02:00,
2013-03-14 13:07:00,47.1,22.0,30.27,SSW,202,0.0,-999.0,37,0.00,Sunny,,0.00,Open2300\PHP-WU,2013-03-14 17:07:00,
2013-03-14 13:13:00,48.0,22.2,30.26,NNE,22,0.0,-999.0,36,0.00,Sunny,,0.00,Open2300\PHP-WU,2013-03-14 17:13:00,
2013-03-14 13:19:00,47.8,22.0,30.26,NNE,22,0.0,-999.0,36,0.00,Sunny,,0.00,Open2300\PHP-WU,2013-03-14 17:19:00,
2013-03-14 13:25:00,48.6,23.3,30.26,WSW,247,0.0,-999.0,37,0.00,Sunny,,0.00,Open2300\PHP-WU,2013-03-14 17:25:00,
2013-03-14 13:31:00,48.4,23.1,30.26,WSW,247,0.0,-999.0,37,0.00,Sunny,,0.00,Open2300\PHP-WU,2013-03-14 17:31:00,
2013-03-14 13:37:00,48.6,22.6,30.25,WSW,247,0.0,-999.0,36,0.00,Sunny,,0.00,Open2300\PHP-WU,2013-03-14 17:37:00,
2013-03-14 13:43:00,48.6,22.6,30.25,WSW,247,0.0,-999.0,36,0.00,Sunny,,0.00,Open2300\PHP-WU,2013-03-14 17:43:00,
2013-03-14 13:49:00,48.6,22.6,30.25,WSW,247,0.0,-999.0,36,0.00,Sunny,,0.00,Open2300\PHP-WU,2013-03-14 17:49:00,
2013-03-14 13:55:00,48.6,22.6,30.25,WSW,247,0.0,-999.0,36,0.00,Sunny,,0.00,Open2300\PHP-WU,2013-03-14 17:55:00,
2013-03-14 14:01:00,48.6,22.6,30.24,WSW,247,0.0,-999.0,36,0.00,Sunny,,0.00,Open2300\PHP-WU,2013-03-14 18:01:00,
2013-03-14 14:07:00,49.8,23.7,30.24,WSW,247,0.0,-999.0,36,0.00,Sunny,,0.00,Open2300\PHP-WU,2013-03-14 18:07:00,
2013-03-14 14:13:00,50.4,22.8,30.24,WSW,247,0.0,-999.0,34,0.00,Sunny,,0.00,Open2300\PHP-WU,2013-03-14 18:13:00,
2013-03-14 14:19:00,50.7,23.1,30.24,WSW,247,0.0,-999.0,34,0.00,Sunny,,0.00,Open2300\PHP-WU,2013-03-14 18:19:00,
2013-03-14 14:25:00,50.7,23.1,30.23,WSW,247,0.0,-999.0,34,0.00,Sunny,,0.00,Open2300\PHP-WU,2013-03-14 18:25:00,
2013-03-14 14:31:00,50.7,23.1,30.23,WSW,247,0.0,-999.0,34,0.00,Sunny,,0.00,Open2300\PHP-WU,2013-03-14 18:31:00,
2013-03-14 14:37:00,52.2,24.4,30.22,ENE,67,0.0,-999.0,34,0.00,Sunny,,0.00,Open2300\PHP-WU,2013-03-14 18:37:00,
2013-03-14 14:43:00,52.3,23.2,30.22,WSW,247,0.0,-999.0,32,0.00,Sunny,,0.00,Open2300\PHP-WU,2013-03-14 18:43:00,
2013-03-14 14:49:00,52.5,23.4,30.22,WSW,247,3.4,-999.0,32,0.00,Sunny,,0.00,Open2300\PHP-WU,2013-03-14 18:49:00,
2013-03-14 14:55:00,52.5,23.4,30.21,WSW,247,3.4,-999.0,32,0.00,Sunny,,0.00,Open2300\PHP-WU,2013-03-14 18:55:00,
2013-03-14 15:01:00,52.5,23.4,30.21,WSW,247,3.4,-999.0,32,0.00,Sunny,,0.00,Open2300\PHP-WU,2013-03-14 19:01:00,
2013-03-14 15:07:00,52.5,23.4,30.21,WSW,247,3.4,-999.0,32,0.00,Sunny,,0.00,Open2300\PHP-WU,2013-03-14 19:07:00,
2013-03-14 15:13:00,52.5,23.4,30.21,WSW,247,3.4,-999.0,32,0.00,Sunny,,0.00,Open2300\PHP-WU,2013-03-14 19:13:00,
2013-03-14 15:35:00,54.7,24.5,30.20,WSW,247,0.0,-999.0,31,0.00,Sunny,,0.00,Open2300\PHP-WU,2013-03-14 19:35:00,
2013-03-14 15:41:00,54.7,24.5,30.20,WSW,247,0.0,-999.0,31,0.00,Sunny,,0.00,Open2300\PHP-WU,2013-03-14 19:41:00,
2013-03-14 16:45:00,56.5,22.6,30.18,WSW,247,0.0,-999.0,27,0.00,Sunny,,0.00,Open2300\PHP-WU,2013-03-14 20:45:00,
2013-03-14 16:51:00,56.7,22.7,30.18,WNW,292,0.0,-999.0,27,0.00,Sunny,,0.00,Open2300\PHP-WU,2013-03-14 20:51:00,
2013-03-14 16:57:00,56.7,22.7,30.18,WNW,292,0.0,-999.0,27,0.00,Sunny,,0.00,Open2300\PHP-WU,2013-03-14 20:57:00,
2013-03-14 17:03:00,57.7,22.7,30.18,WSW,247,0.0,-999.0,26,0.00,Sunny,,0.00,Open2300\PHP-WU,2013-03-14 21:03:00,
2013-03-14 17:09:00,57.4,22.4,30.18,WSW,247,0.0,-999.0,26,0.00,Sunny,,0.00,Open2300\PHP-WU,2013-03-14 21:09:00,
2013-03-14 17:15:00,56.1,21.3,30.18,WSW,247,0.0,-999.0,26,0.00,Sunny,,0.00,Open2300\PHP-WU,2013-03-14 21:15:00,
2013-03-14 17:21:00,56.3,21.5,30.17,WSW,247,2.5,-999.0,26,0.00,Sunny,,0.00,Open2300\PHP-WU,2013-03-14 21:21:00,
2013-03-14 17:27:00,56.1,21.3,30.17,WSW,247,0.0,-999.0,26,0.00,Sunny,,0.00,Open2300\PHP-WU,2013-03-14 21:27:00,
2013-03-14 17:33:00,56.1,21.3,30.17,WSW,247,0.0,-999.0,26,0.00,Sunny,,0.00,Open2300\PHP-WU,2013-03-14 21:33:00,
2013-03-14 17:39:00,55.8,21.0,30.17,WSW,247,0.0,-999.0,26,0.00,Sunny,,0.00,Open2300\PHP-WU,2013-03-14 21:39:00,
2013-03-14 17:45:00,55.8,21.9,30.17,WSW,247,0.0,-999.0,27,0.00,Sunny,,0.00,Open2300\PHP-WU,2013-03-14 21:45:00,
2013-03-14 17:51:00,55.8,21.9,30.17,WSW,247,0.0,-999.0,27,0.00,Sunny,,0.00,Open2300\PHP-WU,2013-03-14 21:51:00,
2013-03-14 17:57:00,55.2,21.5,30.17,North,0,0.0,-999.0,27,0.00,Sunny,,0.00,Open2300\PHP-WU,2013-03-14 21:57:00,
2013-03-14 18:03:00,55.6,21.8,30.17,North,0,0.0,-999.0,27,0.00,Sunny,,0.00,Open2300\PHP-WU,2013-03-14 22:03:00,
2013-03-14 18:09:00,55.2,20.5,30.17,NNE,22,0.0,-999.0,26,0.00,Sunny,,0.00,Open2300\PHP-WU,2013-03-14 22:09:00,
2013-03-14 18:15:00,54.7,21.0,30.17,West,270,0.0,-999.0,27,0.00,Sunny,,0.00,Open2300\PHP-WU,2013-03-14 22:15:00,
2013-03-14 18:21:00,54.3,20.7,30.17,NE,45,0.0,-999.0,27,0.00,Sunny,,0.00,Open2300\PHP-WU,2013-03-14 22:21:00,
2013-03-14 18:27:00,54.0,20.4,30.17,NNW,337,0.0,-999.0,27,0.00,Sunny,,0.00,Open2300\PHP-WU,2013-03-14 22:27:00,
2013-03-14 18:33:00,53.8,20.3,30.17,NNW,337,0.0,-999.0,27,0.00,Sunny,,0.00,Open2300\PHP-WU,2013-03-14 22:33:00,
2013-03-14 18:39:00,53.8,21.2,30.17,WSW,247,0.0,-999.0,28,0.00,Sunny,,0.00,Open2300\PHP-WU,2013-03-14 22:39:00,
2013-03-14 18:45:00,53.2,21.7,30.17,WSW,247,0.0,-999.0,29,0.00,Sunny,,0.00,Open2300\PHP-WU,2013-03-14 22:45:00,
2013-03-14 18:51:00,52.7,21.2,30.17,North,0,0.0,-999.0,29,0.00,Sunny,,0.00,Open2300\PHP-WU,2013-03-14 22:51:00,
2013-03-14 18:57:00,52.2,21.7,30.18,NNE,22,0.0,-999.0,30,0.00,Sunny,,0.00,Open2300\PHP-WU,2013-03-14 22:57:00,
2013-03-14 19:03:00,50.7,20.4,30.18,NW,315,0.0,-999.0,30,0.00,Sunny,,0.00,Open2300\PHP-WU,2013-03-14 23:03:00,
2013-03-14 19:09:00,49.8,20.3,30.18,NW,315,0.0,-999.0,31,0.00,Sunny,,0.00,Open2300\PHP-WU,2013-03-14 23:09:00,
2013-03-14 19:15:00,48.7,20.1,30.18,North,0,0.0,-999.0,32,0.00,Sunny,,0.00,Open2300\PHP-WU,2013-03-14 23:15:00,
2013-03-14 19:21:00,48.4,20.5,30.18,North,0,0.0,-999.0,33,0.00,Sunny,,0.00,Open2300\PHP-WU,2013-03-14 23:21:00,
2013-03-14 19:27:00,48.0,20.2,30.19,West,270,0.0,-999.0,33,0.00,Sunny,,0.00,Open2300\PHP-WU,2013-03-14 23:27:00,
2013-03-14 19:34:00,47.7,20.5,30.19,West,270,0.0,-999.0,34,0.00,Sunny,,0.00,Open2300\PHP-WU,2013-03-14 23:34:00,
2013-03-14 19:40:00,47.1,20.0,30.19,West,270,0.0,-999.0,34,0.00,Sunny,,0.00,Open2300\PHP-WU,2013-03-14 23:40:00,
2013-03-14 19:46:00,46.8,19.7,30.19,WSW,247,0.0,-999.0,34,0.00,Sunny,,0.00,Open2300\PHP-WU,2013-03-14 23:46:00,
2013-03-14 19:52:00,46.2,19.2,30.19,NW,315,0.0,-999.0,34,0.00,Sunny,,0.00,Open2300\PHP-WU,2013-03-14 23:52:00,
2013-03-14 19:58:00,45.7,19.4,30.19,NNE,22,0.0,-999.0,35,0.00,Sunny,,0.00,Open2300\PHP-WU,2013-03-14 23:58:00,
2013-03-14 20:04:00,45.3,19.1,30.19,West,270,0.0,-999.0,35,0.00,Sunny,,0.00,Open2300\PHP-WU,2013-03-15 00:04:00,
2013-03-14 20:10:00,45.0,19.4,30.19,West,270,0.0,-999.0,36,0.00,Sunny,,0.00,Open2300\PHP-WU,2013-03-15 00:10:00,
2013-03-14 20:16:00,44.8,19.2,30.19,West,270,0.0,-999.0,36,0.00,Sunny,,0.00,Open2300\PHP-WU,2013-03-15 00:16:00,
2013-03-14 20:22:00,44.2,18.8,30.19,West,270,0.0,-999.0,36,0.00,Sunny,,0.00,Open2300\PHP-WU,2013-03-15 00:22:00,
2013-03-14 20:28:00,43.7,18.9,30.19,West,270,0.0,-999.0,37,0.00,Sunny,,0.00,Open2300\PHP-WU,2013-03-15 00:28:00,
2013-03-14 20:34:00,43.0,18.3,30.20,SSW,202,0.0,-999.0,37,0.00,Sunny,,0.00,Open2300\PHP-WU,2013-03-15 00:34:00,
2013-03-14 20:40:00,43.0,18.3,30.20,SSW,202,0.0,-999.0,37,0.00,Sunny,,0.00,Open2300\PHP-WU,2013-03-15 00:40:00,
2013-03-14 20:46:00,42.6,18.0,30.20,NNE,22,0.0,-999.0,37,0.00,Sunny,,0.00,Open2300\PHP-WU,2013-03-15 00:46:00,
2013-03-14 20:52:00,42.6,18.0,30.19,West,270,0.0,-999.0,37,0.00,Sunny,,0.00,Open2300\PHP-WU,2013-03-15 00:52:00,
2013-03-14 20:58:00,42.6,18.6,30.20,West,270,0.0,-999.0,38,0.00,Sunny,,0.00,Open2300\PHP-WU,2013-03-15 00:58:00,
2013-03-14 21:04:00,42.1,18.1,30.20,West,270,0.0,-999.0,38,0.00,Sunny,,0.00,Open2300\PHP-WU,2013-03-15 01:04:00,
2013-03-14 21:10:00,41.7,19.1,30.20,WSW,247,0.0,-999.0,40,0.00,Sunny,,0.00,Open2300\PHP-WU,2013-03-15 01:10:00,
2013-03-14 21:16:00,40.8,19.4,30.20,WSW,247,0.0,-999.0,42,0.00,Sunny,,0.00,Open2300\PHP-WU,2013-03-15 01:16:00,
2013-03-14 21:22:00,40.5,19.1,30.20,WSW,247,0.0,-999.0,42,0.00,Sunny,,0.00,Open2300\PHP-WU,2013-03-15 01:22:00,
2013-03-14 21:28:00,39.0,19.9,30.20,WSW,247,0.0,-999.0,46,0.00,Sunny,,0.00,Open2300\PHP-WU,2013-03-15 01:28:00,
2013-03-14 21:34:00,38.8,18.6,30.20,WSW,247,0.0,-999.0,44,0.00,Sunny,,0.00,Open2300\PHP-WU,2013-03-15 01:34:00,
2013-03-14 21:40:00,39.0,18.3,30.20,NNW,337,0.0,-999.0,43,0.00,Sunny,,0.00,Open2300\PHP-WU,2013-03-15 01:40:00,
2013-03-14 21:46:00,40.1,18.7,30.21,NNE,22,0.0,-999.0,42,0.00,Sunny,,0.00,Open2300\PHP-WU,2013-03-15 01:46:00,
2013-03-14 21:52:00,40.1,18.7,30.20,NNE,22,0.0,-999.0,42,0.00,Sunny,,0.00,Open2300\PHP-WU,2013-03-15 01:52:00,
2013-03-14 21:58:00,40.1,18.7,30.20,NNE,22,0.0,-999.0,42,0.00,Sunny,,0.00,Open2300\PHP-WU,2013-03-15 01:58:00,
2013-03-14 22:04:00,40.3,18.9,30.21,ENE,67,0.0,-999.0,42,0.00,Sunny,,0.00,Open2300\PHP-WU,2013-03-15 02:04:00,
2013-03-14 22:10:00,39.6,18.2,30.21,ENE,67,0.0,-999.0,42,0.00,Sunny,,0.00,Open2300\PHP-WU,2013-03-15 02:10:00,
2013-03-14 22:16:00,39.0,18.3,30.21,ENE,67,0.0,-999.0,43,0.00,Sunny,,0.00,Open2300\PHP-WU,2013-03-15 02:16:00,
2013-03-14 22:22:00,38.5,18.3,30.21,East,90,0.0,-999.0,44,0.00,Sunny,,0.00,Open2300\PHP-WU,2013-03-15 02:22:00,
2013-03-14 22:28:00,37.9,18.4,30.21,East,90,0.0,-999.0,45,0.00,Sunny,,0.00,Open2300\PHP-WU,2013-03-15 02:28:00,
2013-03-14 22:34:00,37.2,18.8,30.21,East,90,0.0,-999.0,47,0.00,Sunny,,0.00,Open2300\PHP-WU,2013-03-15 02:34:00,
2013-03-14 22:40:00,36.5,19.1,30.21,East,90,0.0,-999.0,49,0.00,Sunny,,0.00,Open2300\PHP-WU,2013-03-15 02:40:00,
2013-03-14 22:46:00,36.1,18.8,30.21,East,90,0.0,-999.0,49,0.00,Sunny,,0.00,Open2300\PHP-WU,2013-03-15 02:46:00,
2013-03-14 22:52:00,35.4,18.7,30.21,East,90,0.0,-999.0,50,0.00,Sunny,,0.00,Open2300\PHP-WU,2013-03-15 02:52:00,
2013-03-14 22:58:00,35.2,19.8,30.21,East,90,0.0,-999.0,53,0.00,Sunny,,0.00,Open2300\PHP-WU,2013-03-15 02:58:00,
2013-03-14 23:04:00,34.7,19.3,30.21,East,90,0.0,-999.0,53,0.00,Sunny,,0.00,Open2300\PHP-WU,2013-03-15 03:04:00,
2013-03-14 23:10:00,34.3,18.9,30.21,East,90,0.0,-999.0,53,0.00,Sunny,,0.00,Open2300\PHP-WU,2013-03-15 03:10:00,
2013-03-14 23:16:00,34.5,19.5,30.21,East,90,0.0,-999.0,54,0.00,Sunny,,0.00,Open2300\PHP-WU,2013-03-15 03:16:00,
2013-03-14 23:22:00,34.3,19.8,30.22,East,90,0.0,-999.0,55,0.00,Sunny,,0.00,Open2300\PHP-WU,2013-03-15 03:22:00,
2013-03-14 23:28:00,34.2,20.4,30.22,East,90,0.0,-999.0,57,0.00,Sunny,,0.00,Open2300\PHP-WU,2013-03-15 03:28:00,
2013-03-14 23:34:00,33.4,20.2,30.22,East,90,0.0,-999.0,58,0.00,Sunny,,0.00,Open2300\PHP-WU,2013-03-15 03:34:00,
2013-03-14 23:40:00,33.1,19.4,30.22,NNE,22,0.0,-999.0,57,0.00,Sunny,,0.00,Open2300\PHP-WU,2013-03-15 03:40:00,
2013-03-14 23:45:00,33.4,19.3,30.22,NNE,22,0.0,-999.0,56,0.00,Sunny,,0.00,Open2300\PHP-WU,2013-03-15 03:45:00,
2013-03-14 23:52:00,34.5,19.1,30.22,NNE,22,0.0,-999.0,53,0.00,Sunny,,0.00,Open2300\PHP-WU,2013-03-15 03:52:00,
2013-03-14 23:58:00,35.8,19.5,30.22,NNE,22,0.0,-999.0,51,0.00,Sunny,,0.00,Open2300\PHP-WU,2013-03-15 03:58:00,